Powrót do katalogu

STARLINK-36625

AktywnyŁącznośćSSO
NORAD 67668·PAYLOAD·🇺🇸 United States

Wystrzelony Feb 2, 2026 z Vandenberg Space Force Base

Loading…

Następne Przeloty (najbliższe 24 godziny)

TLE

ŚwieżeSource: CelesTrak SupGP

Epoka: Sep 14, 2026, 20:56 UTC

1 67668C 26022W   26257.87270833  .00010557  00000+0  32781-3 0  2573
2 67668  97.2839 289.5072 0001550  90.0865 283.4653 15.33423144    17

Śledź STARLINK-36625 w czasie rzeczywistym z AllMySat

Download on the App Store